{"data":{"norad_id":67092,"intl_designator":"2025-298T","name":"STARLINK-35792","alt_names":[],"object_type":"PAYLOAD","status":"ACTIVE","operator":null,"country":"US","launch_date":"2025-12-14","launch_site_code":"AFWTR","launch_vehicle":null,"mission":null,"orbit_class":"UNKNOWN","rcs_meters":null,"size_class":null,"mass_kg":null,"dimensions":null,"purposes":["comms"],"wikipedia_slug":null,"has_3d_model":false,"image_url":null,"decayed_at":null,"tle_current":{"epoch":"2026-05-25T02:55:27.160032Z","epoch_age_seconds":57894,"freshness":"FRESH","line1":"1 67092U 25298T   26145.12184213  .00003157  00000+0  27225-3 0  9996","line2":"2 67092  70.0011 181.8434 0003665 267.0669  93.0071 14.98335427 24664","mean_motion":14.98335427,"eccentricity":0.0003665,"inclination_deg":70.0011,"raan_deg":181.8434,"arg_perigee_deg":267.0669,"mean_anomaly_deg":93.0071,"bstar":0.00027225,"rev_number":2466,"period_min":96.106651024277,"perigee_km":569.4918689015,"apogee_km":574.58634798899,"semimajor_km":6950.1761084452,"source":"CELESTRAK","updated_at":"2026-05-25T13:38:21.469944Z"}}}